User: anonymous   Login
Location: Croydon
(51.3762°N, 0.0982°W)
Time: 13:35:08
(UTC+00:00)
Language:

Tiros 1 - Orbit

View from above orbital plane
View from above orbital plane
View from above satellite
View from above satellite

Ground track
Ground track

The orbit data is extracted from the following two-line orbital elements,

1    29U 60002B   19321.86507401 -.00000116 +00000-0 +13846-4 0  9991
2    29 048.3794 231.8673 0023819 041.8080 318.4646 14.74328696187178
Epoch (UTC): 17 November 2019 20:45:42
Eccentricity: 0.0023819
inclination: 48.3794°
perigee height: 630 km
apogee height: 664 km
right ascension of ascending node: 231.8673°
argument of perigee: 41.8080°
revolutions per day: 14.74328696
mean anomaly at epoch: 318.4646°
orbit number at epoch: 18717

The dashed part of the orbit path shows where the satellite is in the earth's shadow,  

DLR